FENGYUN 1C DEB, 29895

Orbit data source: Space-Track

FENGYUN 1C DEB, 29895 is space debris in SSO originally from a launch on Mon, 10 May 1999 UTC launched from the Taiyaun Space Center, China (TSC). Fengyun 1C debris stems from the Chinese weather satellite Fengyun-1C, which was intentionally destroyed by a Chinese anti-satellite missile in 2007. This event dramatically increased the amount of space debris, with thousands of trackable fragments posing hazards to satellites and human spaceflight. The Fengyun 1C debris cloud has become a focal point in discussions about space sustainability and the need for international regulations to prevent the creation of new debris.

Loading next visibility...
Identifier
29895, 1999-025GR
Orbit
SSO
Country
Flag of CNCN / PRC
Related business
Manufacturer
Unknown
Mission
Spacecraft
Bus & Motor
Unknown
Mass
Unknown
Launch date (UTC)
1999-05-10 (27 years ago)
Launch vehicle
Unknown
Launch site
Taiyaun Space Center, China (TSC)
Object type
Payload
Rocket body
Debris
Shape & HBR
Unknown shape, 0.1 m
Radar Cross Section
Medium (>0.1 m² and <1 m²)

Expand to show TLE details & history
Last TLE update: 19 hours ago

TLE from 19 hours ago
0 FENGYUN 1C DEB
1 29895U 99025GR  26164.29114822  .00007581  00000-0  28276-2 0  9994
2 29895  99.8965 295.8331 0296516 205.0306 217.8089 14.10715940980966
Epoch: 2026-06-13T06:59Z
TLE epoch observation values (Epoch: 2026-06-13T06:59:15.206Z)
Latitude
59.41966°
Longitude
-87.66945°
Altitude
1,038.759 km
Speed
7.25 km/s
True Right ascension
18h 35m 00s
True Declination
59° 16' 28"
Sunlit
Object was in daylight at epoch
Visualization orbit readout
Latitude
Unknown
Longitude
Unknown
Altitude
Unknown
Speed
Unknown
Apparent Right ascension
Unknown
Apparent Declination
Unknown
Sunlit
N/A
Visualization observer readout
Local Sidereal Time
12:12:08
Azimuth
Unknown
Elevation
Unknown
Doppler factor
Unknown
Orbital elements
Apogee altitude
1,068.599 km
Perigee altitude
639.702 km
Semi-major axis
7,232.287 km
Eccentricity
0.02965
Inclination
99.8965°
RAAN
295.8331°
Arg. of periapsis
205.0306°
True anomaly
215.78568°
Mean anomaly
217.8089°
Eccentric anomaly
216.79142°
Mean motion
3.52882 °/min
Orbital period
102.02 mins
BSTAR
0.0028276
Loading maneuver chart data...
Computing Atmospheric mass density...

Documentation

Showing up to 5 results
|